Regional Weather Roundup
Issued by NWS

Home | Current Version | Previous Version | Graphics & Text | Print | Product List | Glossary On
Versions: 1 2 3 4 5 6 7 8 9 10 11 12 13 14 15 16 17 18 19 20 21 22 23 24 25 26 27 28 29 30 31 32 33 34 35 36 37 38 39 40 41 42 43 44 45 46 47 48 49 50
000
ASUS43 KTOP 271808
RWRKS

WEATHER ROUNDUP FOR KANSAS
NATIONAL WEATHER SERVICE GOODLAND KS
100 PM CDT WED AUG 27 2014

NOTE:  "FAIR" INDICATES FEW OR NO CLOUDS BELOW 12,000 FEET WITH NO
SIGNIFICANT WEATHER AND/OR OBSTRUCTIONS TO VISIBILITY.

KSZ001>006-013>018-027>032-041>047-271900-
NORTHWEST KANSAS

CITY           SKY/WX    TMP DP  RH WIND       PRES   REMARKS
GOODLAND       CLOUDY    75  64  68 S15G24    30.12F
6HR MIN TEMP:  64; 6HR MAX TEMP:  75;

HAYS           FAIR      81  64  57 SE12      30.11S
HILL CITY      PTSUNNY   79  63  57 E7        30.10F
6HR MIN TEMP:  69; 6HR MAX TEMP:  80; 6HR PCP: TRACE;

RUSSELL        FAIR      78  65  63 E9        30.10S
6HR MIN TEMP:  72; 6HR MAX TEMP:  79;

$$

KSZ061>065-074>080-084>089-271900-
SOUTHWEST KANSAS

CITY           SKY/WX    TMP DP  RH WIND       PRES   REMARKS
DODGE CITY     PTSUNNY   81  63  54 S18G26    30.11S
6HR MIN TEMP:  67; 6HR MAX TEMP:  82; 6HR PCP:  0.03;

ELKHART          N/A     80  65  60 S12         N/A
GARDEN CITY    FAIR      83  66  56 S17G25    30.10F
6HR MIN TEMP:  66; 6HR MAX TEMP:  83;

GREAT BEND     PTSUNNY   77  64  65 SE10      30.11F
LIBERAL        FAIR      84  66  54 S17G25    30.12F
PRATT          FAIR      79  64  61 S10       30.12S
$$

KSZ066>073-081>083-090>101-271900-
SOUTHEAST KANSAS

CITY           SKY/WX    TMP DP  RH WIND       PRES   REMARKS
CHANUTE        FAIR      94  65  38 W5        30.09F HX  96
6HR MIN TEMP:  71; 6HR MAX TEMP:  94;

COFFEYVILLE    FAIR      92  68  45 S6        30.08F HX  96
6HR MIN TEMP:  72; 6HR MAX TEMP:  93;

HUTCHINSON     FAIR      85  66  53 SE9       30.11F
6HR MIN TEMP:  75; 6HR MAX TEMP:  85;

MEDICINE LODGE   N/A     82  66  58 SE7       30.09F
NEWTON         FAIR      88  64  45 S5        30.15F
PARSONS        FAIR      93  68  43 VRB3      30.10F HX  97
6HR MIN TEMP:  70; 6HR MAX TEMP:  95;

WICHITA INTL   PTSUNNY   87  65  47 SE6       30.10F
6HR MIN TEMP:  70; 6HR MAX TEMP:  88;

WICHITA JABRA  FAIR      86  65  49 SE5       30.10F
6HR MIN TEMP:  71; 6HR MAX TEMP:  89;

WICHITA MCCONL FAIR      88  66  47 CALM      30.10F
WINFIELD       FAIR      90  67  46 SW6       30.10F
6HR MIN TEMP:  70; 6HR MAX TEMP:  91;

$$

KSZ007>012-019>026-033>040-048>060-102>105-271900-
NORTHEAST KANSAS

CITY           SKY/WX    TMP DP  RH WIND       PRES   REMARKS
CONCORDIA      LGT RAIN  78  74  87 E3        30.11F
6HR MIN TEMP:  70; 6HR MAX TEMP:  79; 6HR PCP: TRACE;

EMPORIA        FAIR      90  66  45 VRB5      30.10F
6HR MIN TEMP:  69; 6HR MAX TEMP:  92;

LAWRENCE       FAIR      89  73  59 E13       30.11F HX  97
6HR MIN TEMP:  74; 6HR MAX TEMP:  89;

MANHATTAN      FAIR      89  70  53 E8        30.08F
6HR MIN TEMP:  72; 6HR MAX TEMP:  90; 6HR PCP: TRACE;

MARYSVILLE     FAIR      81  72  74 S6        30.12S
OLATHE IND     FAIR      88  71  57 VRB6      30.12F
6HR MIN TEMP:  71; 6HR MAX TEMP:  89;

OLATHE EXE     FAIR      85  72  65 VRB7      30.12F
6HR MIN TEMP:  71; 6HR MAX TEMP:  86;

SALINA         FAIR      87  65  47 CALM      30.10F
6HR MIN TEMP:  76; 6HR MAX TEMP:  87;

TOPEKA BILLARD FAIR      86  72  62 E12       30.11F
6HR MIN TEMP:  76; 6HR MAX TEMP:  86;

TOPEKA FORBES  FAIR      87  69  54 E7        30.11F
6HR MIN TEMP:  73; 6HR MAX TEMP:  87;

$$


USA.gov is the U.S. government's official web portal to all federal, state and local government web resources and services.